Location: Byszew
(52.1813°N, 19.2693°E)
Time: 08:29:18
(UTC+00:00)

SO-50 - Visible Passes

Search period start: 01 July 2022 00:00
Search period end: 11 July 2022 00:00
Orbit: 586 x 697 km, 64.6° (Epoch: 30 June)

Date Brightness Start Highest point End Pass type
(mag) Time Alt. Az. Time Alt. Az. Time Alt. Az.
01 Jul ? 00:22:00 11° WSW 00:26:30 62° NW 00:31:22 10° NE visible
01 Jul ? 23:07:52 24° SSW 23:10:36 55° SE 23:15:22 10° NE visible
02 Jul ? 00:46:45 10° WSW 00:51:15 38° NNW 00:55:51 10° NE visible
02 Jul ? 21:53:41 18° SE 21:55:08 21° ESE 21:58:42 10° ENE visible
02 Jul ? 23:31:14 16° SW 23:35:02 81° NW 23:39:58 10° NE visible
03 Jul ? 01:12:02 10° W 01:16:10 27° NNW 01:20:22 10° NE visible
03 Jul ? 22:16:58 24° S 22:19:16 40° ESE 22:23:49 10° NE visible
03 Jul ? 23:55:03 10° WSW 23:59:41 47° NW 00:04:27 10° NE visible
04 Jul ? 01:37:27 10° WNW 01:41:13 22° NNW 01:45:02 10° NE visible
04 Jul ? 21:02:37 13° SE 21:03:58 15° ESE 21:06:37 10° ENE visible
04 Jul ? 22:40:10 19° SSW 22:43:37 77° SE 22:48:31 10° NE visible
05 Jul ? 00:20:12 10° W 00:24:32 31° NNW 00:28:56 10° NE visible
05 Jul ? 21:25:44 20° SSE 21:28:00 29° ESE 21:32:11 10° ENE visible
05 Jul ? 23:03:26 10° WSW 23:08:10 61° NW 23:13:03 10° NE visible
06 Jul ? 00:45:35 10° WNW 00:49:31 24° NNW 00:53:31 10° NE visible
06 Jul ? 20:12:38 10° ESE 20:12:52 10° ESE 20:13:05 10° ESE visible
06 Jul ? 21:48:40 17° SSW 21:52:15 57° SE 21:57:02 10° NE visible
06 Jul ? 23:28:26 10° W 23:32:55 38° NNW 23:37:31 10° NE visible
07 Jul ? 01:11:00 10° NW 01:14:37 20° N 01:18:17 10° NE visible
07 Jul ? 20:33:54 13° SSE 20:36:47 21° ESE 20:40:24 10° ENE visible
07 Jul ? 22:11:55 10° SW 22:16:42 79° NW 22:21:37 10° NE visible
07 Jul ? 23:53:44 10° W 23:57:50 27° NNW 00:02:02 10° NE visible
08 Jul ? 01:36:14 10° NW 01:39:47 19° N 01:43:20 10° NE visible
08 Jul ? 20:56:29 10° SSW 21:00:55 41° ESE 21:05:29 10° NE visible
08 Jul ? 22:36:43 10° WSW 22:41:21 47° NW 22:46:06 10° NE visible
09 Jul ? 00:19:08 10° WNW 00:22:53 21° NNW 00:26:42 10° NE visible
09 Jul ? 19:42:53 10° SE 19:45:36 15° ESE 19:48:21 10° ENE visible
09 Jul ? 21:20:30 10° SW 21:25:15 79° SE 21:30:10 10° NE visible
09 Jul ? 23:01:53 10° W 23:06:12 31° NNW 23:10:35 10° NE visible
10 Jul ? 00:44:29 10° NW 00:48:02 19° N 00:51:36 10° NE visible
10 Jul ? 20:05:31 10° S 20:09:38 30° ESE 20:13:52 10° ENE visible
10 Jul ? 21:45:05 10° WSW 21:49:49 59° NW 21:54:42 10° NE visible
10 Jul ? 23:27:16 10° WNW 23:31:11 24° NNW 23:35:09 10° NE visible
